Batman, Turkey

10:08 AM +03 on December 09, 2016 (GMT +0300)
Batman Air Base

Weather History for LTCJ - July, 2013

Change the Weather History Date:

Wednesday, July 31, 2013

  Actual Average (LTCC) Record (LTCC)
Temperature  
Mean Temperature 79 °F -  
Max Temperature 98 °F 100 °F 111 °F (2000)
Min Temperature 60 °F 72 °F 64 °F (2013)
Cooling Degree Days 14    
Growing Degree Days 29 (Base 50)    
Moisture  
Dew Point 40 °F    
Average Humidity 27    
Maximum Humidity 48    
Minimum Humidity 10    
Precipitation  
Precipitation 0.00 in - - ()
Sea Level Pressure  
Sea Level Pressure 29.55 in    
Wind  
Wind Speed 5 mph ()    
Max Wind Speed 9 mph    
Max Gust Speed -    
Averages and records for this station are not official NWS values.
T = Trace of Precipitation, MM = Missing Value Source: Averaged Metar Reports

Daily Weather History Graph

Daily Weather History Graph

Search for Another Location

Airport or City:

Trip Planner

Search our weather history database for the weather conditions in past years. The results will help you decide how hot, cold, wet, or windy it might be!

Date:

Astronomy

Jul. 31, 2013 Rise Set
Actual Time 5:17 AM EEST 7:25 PM EEST
Civil Twilight 4:48 AM EEST 7:54 PM EEST
Nautical Twilight 4:12 AM EEST 8:30 PM EEST
Astronomical Twilight 3:33 AM EEST 9:09 PM EEST
Moon No Moon Rise 2:21 PM EEST (7/31)
Length of Visible Light 15h 06m
Length of Day
14h 07m
Waning Crescent, 34% of the Moon is Illuminated
Jul 31
Waning Crescent
Aug 7
New
Aug 14
First Quarter
Aug 21
Full
Aug 28
Last Quarter

Hourly Weather History & Observations

Time (EEST) Temp. Dew Point Humidity Pressure Visibility Wind Dir Wind Speed Gust Speed Precip Events Conditions
12:20 AM 71.6 °F 37.4 °F 29% 29.59 in - SW 4.6 mph - N/A   Clear
12:50 AM 69.8 °F 41.0 °F 35% 29.59 in - SW 3.5 mph - N/A   Clear
1:20 AM 66.2 °F 42.8 °F 43% 29.59 in - WSW 5.8 mph - N/A   Clear
1:50 AM 66.2 °F 41.0 °F 40% 29.59 in - SW 5.8 mph - N/A   Clear
2:20 AM 66.2 °F 41.0 °F 40% 29.59 in - SW 6.9 mph - N/A   Clear
2:50 AM 64.4 °F 41.0 °F 42% 29.59 in - SW 4.6 mph - N/A   Clear
3:20 AM 64.4 °F 41.0 °F 42% 29.59 in - Variable 2.3 mph - N/A   Clear
3:50 AM 64.4 °F 41.0 °F 42% 29.59 in - Variable 2.3 mph - N/A   Clear
4:20 AM 62.6 °F 41.0 °F 45% 29.59 in - SSW 3.5 mph - N/A   Clear
4:50 AM 62.6 °F 41.0 °F 45% 29.59 in - SSW 3.5 mph - N/A   Clear
5:20 AM 60.8 °F 41.0 °F 48% 29.59 in - SSW 3.5 mph - N/A   Clear
5:50 AM 60.8 °F 41.0 °F 48% 29.59 in - SSW 3.5 mph - N/A   Clear
6:20 AM 64.4 °F 39.2 °F 40% 29.59 in - South 3.5 mph - N/A   Clear
6:50 AM 66.2 °F 41.0 °F 40% 29.62 in - SW 5.8 mph - N/A   Clear
7:20 AM 69.8 °F 37.4 °F 31% 29.62 in - SSW 6.9 mph - N/A   Clear
7:50 AM 69.8 °F 37.4 °F 31% 29.62 in - SSW 6.9 mph - N/A   Clear
8:20 AM 73.4 °F 37.4 °F 27% 29.62 in - SW 8.1 mph - N/A   Clear
8:50 AM 75.2 °F 39.2 °F 27% 29.62 in - SW 9.2 mph - N/A   Clear
9:20 AM 78.8 °F 37.4 °F 23% 29.59 in - WSW 8.1 mph - N/A   Clear
9:50 AM 80.6 °F 39.2 °F 23% 29.59 in - WSW 8.1 mph - N/A   Clear
10:20 AM 84.2 °F 42.8 °F 23% 29.59 in - SSW 8.1 mph - N/A   Clear
10:50 AM 87.8 °F 41.0 °F 19% 29.59 in - SSW 8.1 mph - N/A   Clear
11:20 AM 89.6 °F 39.2 °F 17% 29.56 in - SSW 8.1 mph - N/A   Clear
11:50 AM 91.4 °F 35.6 °F 14% 29.56 in - West 5.8 mph - N/A   Clear
12:20 PM 93.2 °F 35.6 °F 13% 29.53 in - NW 6.9 mph - N/A   Clear
12:50 PM 95.0 °F 35.6 °F 12% 29.53 in - NNW 5.8 mph - N/A   Clear
1:20 PM 95.0 °F 35.6 °F 12% 29.53 in - West 5.8 mph - N/A   Clear
1:50 PM 98.6 °F 35.6 °F 11% 29.53 in - West 8.1 mph - N/A   Clear
2:20 PM 96.8 °F 35.6 °F 12% 29.50 in - WSW 8.1 mph - N/A   Clear
2:50 PM 96.8 °F 37.4 °F 13% 29.50 in - West 6.9 mph - N/A   Clear
3:20 PM 98.6 °F 35.6 °F 11% 29.50 in - West 8.1 mph - N/A   Clear
3:50 PM 98.6 °F 35.6 °F 11% 29.50 in - WSW 8.1 mph - N/A   Clear
4:20 PM 96.8 °F 32.0 °F 10% 29.50 in - West 8.1 mph - N/A   Clear
4:50 PM 98.6 °F 39.2 °F 13% 29.47 in - WSW 5.8 mph - N/A   Clear
5:20 PM 95.0 °F 37.4 °F 13% 29.47 in - SSW 6.9 mph - N/A   Clear
5:50 PM 95.0 °F 41.0 °F 15% 29.47 in - South 6.9 mph - N/A   Clear
6:20 PM 91.4 °F 42.8 °F 18% 29.47 in - SSW 8.1 mph - N/A   Clear
6:50 PM 89.6 °F 44.6 °F 21% 29.50 in - SW 6.9 mph - N/A   Clear
7:20 PM 86.0 °F 44.6 °F 23% 29.50 in - SW 6.9 mph - N/A   Clear
7:50 PM 80.6 °F 48.2 °F 32% 29.50 in - SSW 6.9 mph - N/A   Clear
8:20 PM 78.8 °F 46.4 °F 32% 29.50 in - SSW 6.9 mph - N/A   Clear
8:50 PM 77.0 °F 44.6 °F 32% 29.53 in - South 4.6 mph - N/A   Clear
9:20 PM 75.2 °F 42.8 °F 31% 29.53 in - South 4.6 mph - N/A   Clear
9:50 PM 78.8 °F 39.2 °F 24% 29.53 in - Variable 2.3 mph - N/A   Clear
10:20 PM 75.2 °F 41.0 °F 29% 29.53 in - SSW 5.8 mph - N/A   Clear
10:50 PM 75.2 °F 41.0 °F 29% 29.53 in - SSE 4.6 mph - N/A   Clear
11:20 PM 75.2 °F 37.4 °F 25% 29.56 in - South 5.8 mph - N/A   Clear
11:50 PM 73.4 °F 37.4 °F 27% 29.56 in - SW 4.6 mph - N/A   Clear